Terug naar catalogus

COSMOS 252 DEB

ActiefLEO
NORAD 3785·DEBRIS·🇷🇺 Russia

Gelanceerd Nov 1, 1968 vanaf Baikonur Cosmodrome

Loading…

Volgende Passages (komende 24 uur)

TLE

VersSource: Space-Track

Epoch: Sep 13, 2026, 19:55 UTC

1 03785U 68097AX  26256.83021415  .00000532  00000-0  71478-3 0  9998
2 03785  62.2508  81.0457 0791517  89.6972 279.4589 12.79245340567687

Volg COSMOS 252 DEB in realtime met AllMySat

Download on the App Store